カタログに戻る

COSMOS 2491 DEB

LostPO
NORAD 57564·DEBRIS·🇷🇺 Russia

打ち上げ Dec 25, 2013 から Plesetsk Cosmodrome

Loading…

次のパス (今後24時間)

TLE

古いSource: Space-Track

元期: Jun 13, 2025, 09:19 UTC

1 57564U 13076BB  25164.38842315  .00000972  00000-0  68242-2 0  9998
2 57564  82.4826  42.9498 0027256 324.6999  35.2275 12.44197404 95485

AllMySatでCOSMOS 2491 DEBをリアルタイム追跡

Download on the App Store